Location: Prostejov
(49.4670°N, 17.1170°E)
Time: 10:58:35
(UTC+02:00)

ISS - Pass Details

Date: 20 May 2021
Orbit: 417 x 422 km, 51.6° (Epoch: 13 June)

Event Time Altitude Azimuth Distance (km) Brightness Sun altitude
Rises 01:20:01 0° 289° (WNW) 2,371 0.2 -20.2°
Reaches altitude 10° 01:22:09 10° 284° (WNW) 1,505 -0.9 -20.1°
Enters shadow 01:23:17 19° 279° (W) 1,067 -1.7 -20.1°
